Location: Newark
(55.7816°N, 8.2389°E)
Time: 14:32:44
(UTC+00:00)

LilacSat-2 - Pass Details

Date: 24 February 2020
Orbit: 514 x 534 km, 97.5° (Epoch: 01 April)

Event Time Altitude Azimuth Distance (km) Brightness Sun altitude
Rises 05:42:10 0° 13° (NNE) 2,655 ? -7.7°
Reaches altitude 10° 05:44:16 10° 13° (NNE) 1,764 ? -7.4°
Maximum altitude 05:48:05 81° 286° (WNW) 535 ? -6.9°
Drops below altitude 10° 05:51:53 10° 200° (SSW) 1,760 ? -6.4°
Sets 05:53:58 0° 199° (SSW) 2,648 ? -6.1°
